Weather History for Atlantic City, NJ

Change the Weather History Date:

Sunday, November 3, 2013

  Actual Average Record
Temperature  
Mean Temperature 44 °F 51 °F  
Max Temperature 54 °F 61 °F 81 °F (2003)
Min Temperature 33 °F 41 °F 19 °F (1980)
Degree Days  
Heating Degree Days 21 14  
Month to date heating degree days 25 42  
Since 1 July heating degree days 390 400  
Cooling Degree Days 0 0  
Month to date cooling degree days 0 0  
Year to date cooling degree days 1088 1054  
Moisture  
Dew Point 34 °F    
Average Humidity 64    
Maximum Humidity 89    
Minimum Humidity 39    
Precipitation  
Precipitation T in 0.11 in 1.43 in (1951)
Month to date precipitation 0.21 0.34  
Year to date precipitation 37.72 35.13  
Snow  
Snow 0.00 in 0.00 in T in (1951)
Month to date snowfall 0.0 0.0  
Since 1 July snowfall 0.0 0.0  
Since 1 September snowfall 0.0 0.0  
Snow Depth 0.00 in    
Sea Level Pressure  
Sea Level Pressure 30.11 in    
Wind  
Wind Speed 10 mph (NNW)    
Max Wind Speed 21 mph    
Max Gust Speed 27 mph    
Visibility 10 miles    
Events      
T = Trace of Precipitation, MM = Missing Value Source: NWS Daily Summary

Daily Weather History Graph

Daily Weather History Graph

Search for Another Location

Airport:

Trip Planner

Search our weather history database for the weather conditions in past years. The results will help you decide how hot, cold, wet, or windy it might be!

Date:

Astronomy

Nov. 03, 2013 Rise Set
Actual Time 6:28 AM EST 4:54 PM EST
Civil Twilight 6:00 AM EST 5:22 PM EST
Nautical Twilight 5:29 AM EST 5:54 PM EST
Astronomical Twilight 4:57 AM EST 6:25 PM EST
Moon 6:29 AM EST (11/3) 5:07 PM EST (11/3)
Length of Visible Light 11h 21m
Length of Day
10h 25m
New Moon, 0% of the Moon is Illuminated
Nov 3
New Moon
Nov 10
First Quarter
Nov 17
Full
Nov 25
Last Quarter
Dec 2
New

Hourly Weather History & Observations

Time (EST) Temp. Windchill Dew Point Humidity Pressure Visibility Wind Dir Wind Speed Gust Speed Precip Events Conditions
12:54 AM 53.1 °F - 42.1 °F 66% 29.84 in 10.0 mi WNW 8.1 mph - N/A   Mostly Cloudy
1:54 AM 51.1 °F - 41.0 °F 68% 29.85 in 10.0 mi WNW 8.1 mph - N/A   Clear
1:54 AM 50.0 °F - 41.0 °F 71% 29.86 in 10.0 mi WNW 8.1 mph - N/A   Clear
2:54 AM 46.9 °F - 39.9 °F 77% 29.88 in 10.0 mi West 5.8 mph - N/A   Clear
3:54 AM 46.0 °F 42.5 °F 39.9 °F 79% 29.90 in 10.0 mi WNW 6.9 mph - N/A   Clear
4:54 AM 43.0 °F 40.3 °F 39.9 °F 89% 29.92 in 10.0 mi WNW 4.6 mph - N/A   Clear
5:54 AM 43.0 °F 39.5 °F 39.9 °F 89% 29.95 in 10.0 mi NW 5.8 mph - N/A   Clear
6:54 AM 42.1 °F 38.4 °F 39.9 °F 92% 30.00 in 10.0 mi NW 5.8 mph - N/A   Clear
7:54 AM 48.0 °F - 42.1 °F 80% 30.03 in 10.0 mi NNW 12.7 mph - N/A   Overcast
8:54 AM 48.9 °F - 39.9 °F 71% 30.07 in 10.0 mi NNW 15.0 mph - N/A   Overcast
9:54 AM 48.0 °F - 39.0 °F 71% 30.11 in 10.0 mi North 17.3 mph - N/A   Overcast
10:54 AM 50.0 °F - 37.9 °F 63% 30.13 in 10.0 mi North 18.4 mph - 0.00 in   Overcast
11:54 AM 51.1 °F - 37.0 °F 59% 30.14 in 10.0 mi NNW 13.8 mph - N/A   Mostly Cloudy
12:54 PM 53.1 °F - 36.0 °F 52% 30.13 in 10.0 mi North 15.0 mph - N/A   Scattered Clouds
1:54 PM 53.1 °F - 35.1 °F 50% 30.16 in 10.0 mi North 16.1 mph 26.5 mph N/A   Mostly Cloudy
2:54 PM 53.1 °F - 33.1 °F 47% 30.18 in 10.0 mi NNW 12.7 mph 21.9 mph N/A   Clear
3:54 PM 52.0 °F - 28.9 °F 41% 30.21 in 10.0 mi North 13.8 mph - N/A   Clear
4:54 PM 48.0 °F - 25.0 °F 41% 30.25 in 10.0 mi NNW 10.4 mph - N/A   Clear
5:54 PM 44.1 °F 40.1 °F 26.1 °F 49% 30.29 in 10.0 mi NNW 6.9 mph - N/A   Clear
6:54 PM 42.1 °F 37.1 °F 26.1 °F 53% 30.32 in 10.0 mi North 8.1 mph - N/A   Clear
7:54 PM 39.0 °F 33.4 °F 25.0 °F 57% 30.35 in 10.0 mi North 8.1 mph - N/A   Clear
8:54 PM 39.0 °F 31.4 °F 23.0 °F 53% 30.39 in 10.0 mi North 12.7 mph - N/A   Clear
9:54 PM 37.0 °F 29.8 °F 21.9 °F 54% 30.42 in 10.0 mi North 10.4 mph - N/A   Clear
10:54 PM 34.0 °F 28.8 °F 21.0 °F 59% 30.44 in 10.0 mi North 5.8 mph - N/A   Clear